Regional Weather Roundup
Issued by NWS Newport/Morehead, NC

Current Version | Previous Version | Graphics & Text | Print | Product List | Glossary On
Versions: 1 2 3 4 5 6 7 8 9 10 11 12 13 14 15 16 17 18 19 20 21 22 23 24 25 26 27 28 29 30 31 32 33 34 35 36 37 38 39 40 41 42 43 44 45 46 47 48 49 50
000 ASUS42 KMHX 290827 RWRMHX WEATHER ROUNDUP FOR EASTERN NORTH CAROLINA NATIONAL WEATHER SERVICE NEWPORT/MOREHEAD CITY NC 400 AM EDT SUN MAR 29 2015 NOTE: "FAIR" INDICATES FEW OR NO CLOUDS BELOW 12,000 FEET WITH NO SIGNIFICANT WEATHER AND/OR OBSTRUCTIONS TO VISIBILITY NCZ015>017-031-032-045>047-102-103-290900- NORTH COAST CITY SKY/WX TMP DP RH WIND PRES REMARKS EDENTON CLEAR 28 17 63 NW3 30.30R ELIZABETH CITY CLEAR 29 15 56 NW9 30.28R KITTY HAWK SUNNY 32 7 35 NW14G21 30.25S MANTEO CLEAR 32 10 40 N20G28 30.27S $$ NCZ045>047-081-094-103-104-290900- CENTRAL COAST CITY SKY/WX TMP DP RH WIND PRES REMARKS FRISCO CLEAR 33 15 47 N10G22 30.25S SWANQUARTER N/A 28 N/A N/A N2 30.24S $$ NCZ095-097-098-100-101-290900- SOUTHERN COAST CITY SKY/WX TMP DP RH WIND PRES REMARKS BEAUFORT CLEAR 32 20 61 N7 30.28R CEDAR ISLAND N/A 36 N/A N/A VRB22G28 30.30S JACKSONVILLE CLEAR 31 18 58 N7 30.29S PINEY ISLAND SUNNY N/A N/A N/A N14 30.27S WILMINGTON CLEAR 33 18 53 N8 30.30R $$ NCZ011>013-027>030-043-044-078>080-089-090>093-098-290900- COASTAL PLAIN CITY SKY/WX TMP DP RH WIND PRES REMARKS AHOSKIE CLEAR 27 15 60 CALM 30.31R CLINTON CLEAR 31 18 60 CALM 30.32R ELIZABETHTOWN CLEAR 31 19 61 CALM 30.32R GOLDSBORO CLEAR 31 22 70 N5 30.29S GREENVILLE CLEAR 28 21 74 CALM 30.32R HAVELOCK CLEAR 33 16 49 N12 30.29S KENANSVILLE CLEAR 29 18 62 N3 30.32S KINSTON CLEAR 29 18 62 N3 30.31S NEW BERN CLEAR 32 14 47 N7 30.31R RICHLANDS CLEAR 28 16 59 NW3 30.31R ROCKY MOUNT CLEAR 29 15 56 N6 30.31S WASHINGTON CLEAR 28 17 63 CALM 30.31R WHITEVILLE CLEAR 34 17 48 CALM 30.31R $$ AMZ130-135-150-152-154-156-158-170-250-252-270-ANZ085-086-088-633-658-670-290900- MARINE OBSERVATIONS STATION/POSITION TIME TEMP WIND PRES WAVE SWELL AIR SEA DIR/SP/G HT/PER HT/PER (UTC) (F) (DEG/KT/KT) (MB) (FT/S) (FT/S) CHESAPEAKE LIGHT 0800 32 330/ 22/ 25 1024.6 64 E VA BEACH 0750 36 55 330/ 19/ 25 1022.2 6/ 6 2/ 9 DUCK NOT AVBL 2 E DUCK 0811 42 N/A 5/ 6 10 NE DUCK NOT AVBL OREGON INLET NOT AVBL HATTERAS CG NOT AVBL CAPE LOOKOUT 0800 36 360/ 15/ 18 1024.6 BEAUFORT LAB NOT AVBL 27 SE WRIGHTSVLE 0800 41 65 30/ 21/ 25 1024.9 5 SE WRIGHTSVLE 0800 39 56 20/ 21/ 25 1025.1 225 S CAPE HAT 0750 58 68 310/ 16/ 21 1019.8 10/ 8 8/ 8 41 SE CHARLESTON 0750 53 68 30/ 17/ 21 1022.8 3/ 4 2/ 9 $$

USA.gov is the U.S. government's official web portal to all federal, state and local government web resources and services.